Wind_Speed
18 19 20 20 21 22 22 22 23 23 23 24 25 25 25 25 26 26 26 26 26 27 27 26 27 27 28 29 29 30 31 32 31 31 31 31 31 31
19 19 19 20 20 21 22 22 23 23 23 23 24 26 26 26 25 25 26 26 26 26 27 27 27 28 28 30 31 31 31 31 32 32 32 32 33 33
17 17 17 18 20 20 21 22 22 23 23 23 24 24 24 24 24 24 25 26 26 26 26 27 27 28 29 30 30 30 30 31 32 33 33 34 35 35
15 15 16 16 17 18 19 20 21 22 22 22 22 22 23 23 24 25 26 26 26 26 26 27 27 28 29 29 30 31 31 31 31 32 32 34 36 37
14 15 15 16 17 18 19 19 19 20 21 22 22 23 23 23 23 25 26 27 27 26 26 27 28 28 28 29 30 31 32 32 32 31 31 33 35 36
14 14 15 16 17 18 18 18 18 19 20 21 22 22 23 22 22 22 23 24 24 25 26 26 27 28 28 28 28 29 30 31 31 31 31 33 34 35
14 15 16 16 16 17 17 18 18 18 18 19 19 20 21 21 22 22 22 23 24 25 26 26 27 28 28 28 29 30 30 30 30 31 31 32 33 34
15 15 16 16 15 16 17 17 17 18 18 19 19 19 20 20 21 21 22 23 24 25 26 26 27 27 28 28 28 28 28 29 29 30 31 32 32 33
15 15 15 15 15 15 16 17 17 17 18 19 20 20 20 21 22 22 23 23 24 25 25 26 26 27 27 27 27 27 28 28 29 29 29 30 31 32
14 14 15 14 15 15 15 16 17 17 17 18 19 19 20 21 21 21 21 22 22 23 24 24 25 26 27 27 27 27 27 28 28 28 28 29 30 31
14 14 14 15 15 15 15 15 15 16 16 17 17 18 19 19 20 20 21 21 22 23 24 25 25 25 25 26 27 28 28 28 29 29 29 29 30 31
13 13 14 14 14 14 14 14 14 15 16 17 18 18 19 19 19 20 21 22 23 23 24 24 24 25 25 26 27 27 28 29 29 30 31 31 31 32
13 13 14 13 14 14 13 13 14 15 16 17 17 18 18 19 20 21 22 22 23 23 23 24 24 25 25 26 27 28 29 30 30 31 31 31 30 30
12 13 13 13 13 12 12 13 14 15 15 16 17 17 18 19 20 21 21 21 22 22 23 24 24 25 26 27 28 29 30 31 31 31 30 30 30 30
13 13 13 13 12 12 13 14 14 14 15 16 16 17 18 19 19 20 20 20 21 22 23 24 25 26 27 27 28 29 30 31 31 30 30 29 29 29
13 13 12 13 13 13 13 14 14 15 15 15 15 16 17 18 18 19 20 21 22 22 23 24 25 26 26 27 28 29 29 29 29 29 29 29 29 29
13 12 12 13 13 13 14 14 15 15 15 15 15 17 18 18 19 20 22 22 23 23 24 24 25 25 25 27 28 28 28 28 28 28 28 28 28 28
14 14 14 14 15 15 16 16 16 16 16 16 17 18 19 20 21 22 22 23 24 24 25 26 26 25 25 26 27 27 27 27 27 26 26 26 26 26
14 14 15 15 16 17 17 16 17 17 17 17 17 18 20 21 22 23 23 24 23 24 25 25 25 25 25 26 27 27 26 26 25 25 25 25 25 25
15 15 15 16 17 17 17 17 17 18 18 19 20 20 21 22 23 24 24 24 24 25 25 26 26 26 26 27 27 27 27 26 25 24 24 25 25 25
15 16 16 17 17 17 17 18 18 19 19 20 21 21 22 22 23 24 24 24 25 25 25 25 25 26 27 28 27 26 26 26 25 24 24 24 24 24
16 16 17 17 17 17 17 18 19 20 20 21 21 22 22 22 23 23 23 24 25 25 26 26 27 27 28 28 27 25 24 24 24 24 24 24 24 24
17 17 17 17 17 18 19 19 19 20 20 21 21 22 22 22 23 23 24 24 25 25 26 26 27 27 27 27 26 25 24 23 23 23 24 24 24 24
Wind_Direction
271 268 267 267 267 265 266 266 266 265 265 266 267 268 269 268 265 264 265 267 268 269 269 269 268 267 266 265 265 265 266 266 265 265 262 262 260 258
274 270 268 269 270 269 269 268 267 268 267 266 266 269 271 270 268 267 266 267 269 270 269 269 269 267 267 267 268 268 268 267 267 266 263 262 259 258
278 276 273 274 273 272 271 271 271 269 268 268 267 268 271 270 270 269 268 268 270 271 270 270 270 269 269 268 269 268 268 269 268 267 265 262 259 258
279 276 276 278 277 274 273 273 271 270 269 269 270 270 271 271 270 270 270 270 271 271 271 271 270 270 270 270 271 270 269 270 270 269 267 264 261 259
284 283 282 281 279 277 275 275 274 274 272 271 271 270 272 273 272 272 273 273 272 272 273 273 273 272 272 274 274 272 271 270 269 269 268 266 264 261
287 288 287 287 284 281 277 275 275 275 273 272 271 272 274 274 275 275 274 274 273 274 274 274 274 274 275 277 277 275 273 272 271 270 269 267 266 265
290 291 290 289 287 285 281 277 274 274 273 272 272 274 275 276 279 279 278 277 275 275 275 275 275 276 277 278 278 277 276 274 273 272 270 268 267 266
294 295 293 292 289 288 284 278 277 276 275 274 273 276 278 280 280 279 280 279 278 277 276 277 276 276 277 279 279 277 275 275 273 272 271 271 270 270
298 297 295 292 290 288 286 282 281 280 278 277 277 278 280 282 283 283 283 283 281 279 277 278 278 276 277 278 279 277 275 275 275 275 275 274 273 271
303 303 301 297 293 289 284 284 284 284 284 283 283 282 281 283 286 287 286 286 285 284 283 283 281 280 280 279 281 280 279 279 278 278 277 278 277 275
306 306 304 301 297 293 289 286 286 285 286 284 285 284 284 284 286 288 289 287 286 286 287 287 286 284 282 281 283 283 282 282 280 279 280 280 280 276
306 305 304 303 301 297 294 288 288 289 289 287 287 287 287 286 287 289 290 289 289 288 288 288 287 286 286 285 284 284 284 284 282 281 281 281 281 278
304 306 308 307 306 302 298 292 291 291 293 292 291 291 291 290 290 291 292 292 291 291 290 290 288 288 288 287 286 286 286 286 284 284 283 282 281 280
304 307 310 310 309 306 303 299 297 297 297 297 297 297 297 296 295 294 294 295 294 293 292 292 291 290 290 289 289 289 288 286 286 285 284 283 281 280
304 308 310 311 311 309 308 307 303 302 300 300 300 300 300 299 297 297 298 298 297 297 297 296 295 294 293 293 293 292 290 287 285 285 283 283 281 280
306 309 310 312 312 310 310 310 309 306 304 303 303 302 302 303 302 301 301 300 299 299 300 300 300 299 298 297 296 295 292 288 286 285 284 282 282 281
309 312 311 311 312 312 312 311 312 313 311 308 305 305 305 304 304 304 304 302 301 301 301 301 301 302 301 300 300 297 294 291 289 287 285 284 283 282
305 306 307 307 307 309 310 309 311 313 311 309 307 306 305 305 305 307 307 306 304 303 303 303 303 303 304 304 303 300 297 294 291 289 287 285 283 282
301 304 305 305 307 308 308 310 313 315 315 313 313 311 310 308 307 307 308 308 308 307 307 307 305 305 306 308 306 303 300 296 293 291 290 287 284 282
298 302 304 304 305 307 307 310 313 314 314 313 313 313 312 313 312 312 311 311 310 309 309 309 307 306 307 308 307 305 303 299 295 293 290 287 285 285
296 298 301 303 303 304 304 308 312 312 311 311 313 314 313 313 313 312 311 311 312 312 311 311 311 310 310 310 308 306 304 301 298 295 293 290 288 287
297 299 300 302 303 304 305 307 309 308 308 309 312 314 313 312 312 312 312 312 313 313 312 311 311 311 311 311 310 308 306 303 300 298 296 295 294 290
296 298 298 301 303 304 303 302 304 305 306 307 309 310 311 311 311 311 311 312 313 313 312 312 312 312 312 312 311 310 308 305 302 300 300 299 297 294
Height
5795 5795 5795 5795 5795 5795 5795 5796 5796 5796 5797 5796 5796 5795 5795 5795 5794 5794 5794 5794 5794 5794 5793 5793 5793 5792 5792 5792 5792 5792 5792 5791 5792 5792 5792 5793 5793 5794
5789 5789 5789 5788 5788 5788 5788 5789 5789 5790 5789 5789 5789 5788 5788 5787 5787 5787 5787 5787 5786 5786 5785 5785 5784 5784 5784 5784 5783 5783 5782 5782 5782 5782 5782 5783 5783 5784
5783 5783 5782 5782 5782 5782 5782 5782 5782 5782 5782 5782 5782 5781 5781 5780 5780 5779 5779 5779 5779 5778 5778 5777 5777 5776 5776 5775 5775 5774 5773 5773 5773 5773 5773 5773 5774 5775
5778 5777 5777 5776 5776 5776 5776 5775 5775 5775 5776 5775 5775 5775 5774 5774 5773 5773 5772 5772 5771 5771 5770 5769 5769 5768 5767 5767 5766 5765 5764 5764 5764 5763 5763 5763 5764 5764
5773 5772 5772 5771 5770 5770 5770 5769 5769 5769 5769 5769 5769 5768 5768 5767 5766 5766 5765 5764 5763 5763 5762 5762 5761 5760 5759 5758 5757 5756 5756 5755 5755 5754 5753 5753 5753 5753
5768 5767 5766 5765 5764 5764 5763 5763 5763 5763 5763 5763 5762 5762 5761 5760 5760 5759 5758 5757 5756 5755 5755 5754 5753 5752 5751 5750 5749 5748 5747 5746 5745 5744 5744 5743 5743 5743
5764 5763 5761 5760 5759 5758 5758 5757 5757 5757 5757 5757 5756 5755 5755 5754 5753 5752 5751 5750 5749 5748 5747 5746 5745 5744 5742 5741 5740 5739 5738 5737 5736 5735 5734 5734 5733 5732
5760 5758 5757 5755 5754 5753 5752 5752 5752 5752 5751 5751 5751 5750 5749 5748 5747 5745 5744 5743 5742 5741 5740 5739 5737 5736 5734 5733 5732 5730 5729 5728 5727 5726 5725 5724 5723 5722
5755 5754 5752 5750 5749 5748 5747 5747 5746 5746 5746 5745 5744 5743 5743 5742 5740 5739 5737 5736 5734 5733 5732 5731 5729 5728 5726 5725 5723 5722 5720 5719 5718 5717 5715 5714 5713 5711
5752 5750 5747 5746 5744 5743 5743 5742 5741 5740 5740 5739 5739 5738 5737 5735 5734 5733 5731 5729 5728 5726 5724 5723 5722 5720 5719 5717 5715 5714 5712 5711 5709 5708 5706 5705 5703 5702
5748 5746 5744 5742 5740 5739 5738 5737 5736 5735 5734 5733 5733 5732 5731 5729 5728 5726 5725 5723 5722 5720 5718 5716 5714 5713 5711 5710 5708 5706 5704 5702 5701 5699 5697 5695 5693 5691
5744 5742 5740 5738 5736 5734 5733 5732 5732 5731 5730 5728 5727 5726 5725 5724 5722 5720 5718 5717 5715 5713 5711 5709 5707 5705 5704 5702 5700 5698 5696 5694 5692 5690 5687 5685 5683 5681
5741 5739 5737 5735 5732 5731 5729 5728 5727 5726 5725 5724 5722 5721 5719 5718 5716 5714 5712 5710 5708 5706 5704 5702 5700 5698 5696 5694 5692 5689 5687 5685 5682 5680 5678 5675 5673 5671
5738 5736 5734 5732 5730 5728 5726 5725 5723 5722 5720 5719 5718 5716 5714 5712 5710 5708 5706 5704 5702 5699 5697 5695 5692 5690 5688 5686 5684 5681 5678 5675 5673 5670 5668 5666 5663 5661
5735 5733 5731 5729 5727 5725 5723 5721 5720 5718 5716 5715 5713 5711 5709 5707 5704 5702 5700 5698 5695 5693 5690 5687 5685 5682 5680 5677 5675 5672 5669 5666 5663 5661 5658 5656 5654 5652
5732 5730 5728 5726 5724 5722 5720 5718 5716 5714 5712 5710 5708 5706 5704 5702 5699 5697 5694 5692 5690 5687 5684 5681 5677 5674 5671 5668 5665 5662 5659 5656 5654 5651 5649 5647 5644 5642
5729 5727 5725 5723 5721 5719 5717 5715 5712 5710 5708 5706 5704 5702 5699 5697 5694 5692 5689 5686 5683 5680 5677 5674 5670 5667 5663 5660 5657 5654 5650 5647 5645 5642 5640 5638 5636 5633
5725 5724 5722 5720 5718 5715 5713 5711 5708 5706 5704 5701 5699 5696 5694 5692 5689 5686 5683 5680 5677 5674 5670 5667 5664 5660 5657 5653 5649 5645 5642 5639 5636 5633 5631 5628 5627 5625
5721 5720 5718 5716 5714 5711 5709 5706 5704 5702 5699 5697 5694 5691 5689 5686 5683 5680 5677 5673 5670 5667 5664 5660 5656 5653 5649 5646 5642 5637 5634 5631 5628 5625 5622 5620 5618 5616
5717 5715 5713 5711 5709 5707 5705 5702 5700 5698 5695 5692 5690 5687 5683 5680 5677 5674 5670 5667 5664 5661 5657 5653 5649 5645 5642 5638 5634 5630 5626 5622 5619 5617 5614 5612 5610 5608
5712 5710 5709 5706 5704 5702 5700 5698 5695 5693 5690 5687 5684 5681 5678 5675 5672 5668 5665 5661 5658 5654 5651 5647 5643 5639 5635 5631 5627 5623 5619 5615 5611 5608 5606 5604 5602 5600
5707 5705 5703 5701 5699 5697 5695 5693 5690 5688 5685 5682 5679 5676 5673 5669 5666 5663 5659 5656 5652 5648 5644 5640 5636 5632 5628 5624 5620 5616 5612 5608 5605 5601 5598 5596 5593 5591
5702 5700 5698 5696 5694 5692 5690 5687 5685 5682 5680 5677 5674 5670 5667 5664 5660 5657 5653 5650 5646 5642 5638 5634 5630 5626 5621 5617 5613 5609 5605 5602 5599 5596 5592 5589 5586 5584